This demonstration page uses our WeatherBlox Daily Observations layout. Learn more.

Left ArrowRight Arrow

Hourly Observations for May 26, 2022

Temp ( °F °C ) Dew Point ( °F °C ) Humidity (%) Winds ( mph kmh ) Pressure ( in mb ) Visibility ( mi km ) Precip ( " mm )
12:59 am 00:59 Cloudy with Mist and Fog 59 15 58 14.4 96 96 ENE 13 20 30.27 1025 4 6 0.00 0.00
1:59 am 01:59 Cloudy with Mist and Fog 59 15 58 14.4 96 96 ENE 10 17 30.25 1025 4 6 0.00 0.00
2:41 am 02:41 Cloudy with Mist and Fog 61 16.1 59 15 93 93 NE 9 15 30.24 1024 3 4 0.00 0.00
2:59 am 02:59 Cloudy with Mist and Fog 61 16.1 59 15 93 93 NE 9 15 30.24 1024 2 3 0.00 0.00
3:55 am 03:55 Cloudy with Mist and Fog 61 16 59 15 94 94 NE 9 15 30.24 1024 5 8 0.00 0.00
3:59 am 03:59 Cloudy with Mist and Fog 62 16.7 59 15 90 90 NE 10 17 30.24 1024 5 8 0.00 0.00
4:59 am 04:59 Cloudy with Mist and Fog 62 16.7 59 15 90 90 NE 10 17 30.23 1024 5 8 0.00 0.00
5:59 am 05:59 Cloudy with Mist and Fog 62 16.7 60 15.6 93 93 ENE 8 13 30.23 1024 3 5 0.01 0.25
6:59 am 06:59 Cloudy with Light Rain 62 16.7 60 15.6 93 93 NE 8 13 30.24 1024 3 5 0.02 0.51
7:59 am 07:59 Cloudy with Mist and Fog 62 16.7 61 16.1 96 96 NE 9 15 30.24 1024 2 3 0.01 0.25
8:41 am 08:41 Cloudy with Haze 66 18.9 61 16.1 84 84 ENE 12 19 30.24 1024 2 3 0.00 0.00
8:54 am 08:54 Cloudy with Mist and Fog 66 19 61 16 83 83 ENE 9 15 30.25 1024 6 10 0.00 0.00
8:59 am 08:59 Cloudy with Mist and Fog 66 18.9 61 16.1 84 84 ENE 8 13 30.24 1024 6 10 0.00 0.00
9:59 am 09:59 Cloudy 66 18.9 63 17.2 90 90 ENE 9 15 30.25 1024 7 11 0.00 0.00
10:59 am 10:59 Cloudy with Mist and Fog 68 20 63 17.2 84 84 ENE 10 17 30.24 1024 6 10 0.00 0.00
11:59 am 11:59 Cloudy with Mist and Fog 68 20 63 17.2 84 84 E 8 13 30.22 1024 6 10 0.00 0.00
12:59 pm 12:59 Cloudy with Mist and Fog 68 20 63 17.2 84 84 NNE 6 9 30.21 1023 6 10 0.00 0.00
1:41 pm 13:41 Cloudy with Mist and Fog 71 21.7 64 17.8 79 79 NNE 8 13 30.20 1023 6 10 0.00 0.00
1:59 pm 13:59 Cloudy with Mist and Fog 71 21.7 64 17.8 79 79 NE 6 9 30.19 1022 6 10 0.00 0.00
2:59 pm 14:59 Cloudy 71 21.7 64 17.8 79 79 N 7 11 30.17 1022 7 11 0.00 0.00
3:59 pm 15:59 Cloudy 71 21.7 64 17.8 79 79 ENE 5 7 30.15 1021 7 11 0.00 0.00
4:59 pm 16:59 Mostly Cloudy 71 21.7 64 17.8 79 79 NNE 6 9 30.13 1020 9 14 0.00 0.00
5:59 pm 17:59 Mostly Cloudy 72 22.2 65 18.3 79 79 N 6 9 30.12 1020 9 14 0.00 0.00
6:20 pm 18:20 Mostly Cloudy 72 22.2 64 17.8 76 76 N 5 7 30.12 1020 8 13 0.00 0.00
6:39 pm 18:39 Mostly Cloudy 72 22.2 64 17.8 76 76 NNE 3 6 30.12 1020 7 11 0.00 0.00
6:59 pm 18:59 Mostly Cloudy with Haze 71 21.7 64 17.8 79 79 NE 5 7 30.12 1020 6 10 0.00 0.00
7:53 pm 19:53 Mostly Cloudy 68 20 64 18 88 88 Calm 30.12 1020 7 11 0.00 0.00
7:59 pm 19:59 Mostly Cloudy 69 20.6 64 17.8 84 84 Calm 30.12 1020 7 11 0.00 0.00
8:59 pm 20:59 Mostly Cloudy 67 19.4 64 17.8 91 91 ENE 6 9 30.11 1020 9 14 0.00 0.00
9:59 pm 21:59 Mostly Cloudy 67 19.4 64 17.8 91 91 Calm 30.12 1020 8 13 0.00 0.00
10:40 pm 22:40 Mostly Cloudy with Mist and Fog 66 18.9 63 17.2 90 90 E 5 7 30.11 1020 6 10 0.00 0.00
10:59 pm 22:59 Mostly Cloudy with Mist and Fog 66 18.9 63 17.2 90 90 E 3 6 30.10 1019 5 8 0.00 0.00
11:59 pm 23:59 Mostly Cloudy with Mist and Fog 65 18.3 62 16.7 90 90 Calm 30.10 1019 5 8 0.00 0.00

Powered by AerisWeather